Location: Boiro
(42.6475°N, 8.8834°W)
Time: 14:33:43
(UTC+02:00)

Explorer 7 - Pass Details

Date: 30 June 2022
Orbit: 482 x 668 km, 50.3° (Epoch: 15 August)

Event Time Altitude Azimuth Distance (km) Brightness Sun altitude
Exits shadow 01:21:01 44° 214° (SW) 920 7.6 -21.7°
Maximum altitude 01:22:28 71° 145° (SE) 703 7.0 -21.8°
Drops below altitude 10° 01:27:13 10° 62° (ENE) 2,054 9.8 -22.1°
Sets 01:29:31 0° 61° (ENE) 2,944 10.7 -22.2°
